20-11-01-22:27:36,96.964096
20-11-01-22:30:01,96.965401
20-11-01-22:35:01,96.959000
20-11-01-22:40:01,96.967499
20-11-01-22:45:01,96.963600
20-11-01-22:50:01,96.963600
20-11-01-22:55:01,96.972298
20-11-01-23:00:01,96.978600
20-11-01-23:05:01,96.974998
20-11-01-23:10:01,96.985001
20-11-01-23:15:01,96.987999
20-11-01-23:20:01,97.001297
20-11-01-23:25:01,97.015999
20-11-01-23:30:01,97.016296
20-11-01-23:35:01,97.024399
20-11-01-23:40:01,97.030296
20-11-01-23:45:01,97.022598
20-11-01-23:50:01,97.035995
20-11-01-23:55:01,97.024002
20-11-02-00:00:01,97.031799
20-11-02-00:05:01,97.029900
20-11-02-00:10:01,97.043999
20-11-02-00:15:01,97.053604
20-11-02-00:20:01,97.061996
20-11-02-00:25:01,97.051598
20-11-02-00:30:01,97.051003
20-11-02-00:35:01,97.072098
20-11-02-00:40:01,97.079796
20-11-02-00:45:01,97.076294
20-11-02-00:50:01,97.073799
20-11-02-00:55:01,97.083397
20-11-02-01:00:01,97.069397
20-11-02-01:05:01,97.073799
20-11-02-01:10:01,97.077599
20-11-02-01:15:01,97.082901
20-11-02-01:20:01,97.086800
20-11-02-01:25:01,97.093796
20-11-02-01:30:01,97.086998
20-11-02-01:35:01,97.087997
20-11-02-01:40:01,97.092300
20-11-02-01:45:01,97.091400
20-11-02-01:50:01,97.098404
20-11-02-01:55:01,97.099800
20-11-02-02:00:01,97.106003
20-11-02-02:05:01,97.097603
20-11-02-02:10:01,97.099602
20-11-02-02:15:01,97.114502
20-11-02-02:20:01,97.118698
20-11-02-02:25:01,97.134499
20-11-02-02:30:01,97.136002
20-11-02-02:35:01,97.134201
20-11-02-02:40:01,97.140999
20-11-02-02:45:01,97.150200
20-11-02-02:50:01,97.161606
20-11-02-02:55:01,97.167603
20-11-02-03:00:01,97.171005
20-11-02-03:05:01,97.184402
20-11-02-03:10:01,97.201202
20-11-02-03:15:01,97.228203
20-11-02-03:20:01,97.241203
20-11-02-03:25:01,97.257797
20-11-02-03:30:01,97.262001
20-11-02-03:35:01,97.267998
20-11-02-03:40:01,97.281204
20-11-02-03:45:01,97.281799
20-11-02-03:50:01,97.299393
20-11-02-03:55:01,97.307793
20-11-02-04:00:01,97.317894
20-11-02-04:05:01,97.323402
20-11-02-04:10:01,97.330002
20-11-02-04:15:01,97.335999
20-11-02-04:20:01,97.336800
20-11-02-04:25:01,97.332199
20-11-02-04:30:01,97.342796
20-11-02-04:35:01,97.354103
20-11-02-04:40:01,97.355392
20-11-02-04:45:01,97.366295
20-11-02-04:50:01,97.373398
20-11-02-04:55:01,97.376602
20-11-02-05:00:01,97.376793
20-11-02-05:05:01,97.393501
20-11-02-05:10:01,97.393600
20-11-02-05:15:01,97.408897
20-11-02-05:20:01,97.412003
20-11-02-05:25:01,97.416206
20-11-02-05:30:01,97.427902
20-11-02-05:35:01,97.431396
20-11-02-05:40:01,97.436295
20-11-02-05:45:01,97.445000
20-11-02-05:50:01,97.459206
20-11-02-05:55:01,97.454605
20-11-02-06:00:01,97.461601
20-11-02-06:05:01,97.469200
20-11-02-06:10:01,97.473801
20-11-02-06:15:01,97.483704
20-11-02-06:20:01,97.488792
20-11-02-06:25:01,97.496002
20-11-02-06:30:01,97.508400
20-11-02-06:35:01,97.514000
20-11-02-06:40:01,97.532600
20-11-02-06:45:01,97.551003
20-11-02-06:50:01,97.556000
20-11-02-06:55:01,97.573204
20-11-02-07:00:01,97.574600
20-11-02-07:05:01,97.589005
20-11-02-07:10:01,97.589600
20-11-02-07:15:01,97.589401
20-11-02-07:20:01,97.609398
20-11-02-07:25:01,97.609398
20-11-02-07:30:01,97.617897
20-11-02-07:35:01,97.613899
20-11-02-07:40:01,97.634598
20-11-02-07:45:01,97.628998
20-11-02-07:50:01,97.639999
20-11-02-07:55:01,97.646202
20-11-02-08:00:01,97.645401
20-11-02-08:05:01,97.656204
20-11-02-08:10:01,97.659004
20-11-02-08:15:01,97.664001
20-11-02-08:20:01,97.672203
20-11-02-08:25:01,97.686295
20-11-02-08:30:01,97.689796
20-11-02-08:35:01,97.698601
20-11-02-08:40:01,97.702003
20-11-02-08:45:01,97.709396
20-11-02-08:50:02,97.719002
20-11-02-08:55:01,97.728897
20-11-02-09:00:01,97.738396
20-11-02-09:05:01,97.747208
20-11-02-09:10:01,97.754601
20-11-02-09:15:01,97.774704
20-11-02-09:20:01,97.769394
20-11-02-09:25:01,97.771400
20-11-02-09:30:01,97.779205
20-11-02-09:35:02,97.776001
20-11-02-09:40:01,97.778603
20-11-02-09:45:01,97.785995
20-11-02-09:50:01,97.783203
20-11-02-09:55:01,97.784996
20-11-02-10:00:01,97.781998
20-11-02-10:05:01,97.786606
20-11-02-10:10:01,97.789001
20-11-02-10:15:01,97.792496
20-11-02-10:20:01,97.795792
20-11-02-10:25:01,97.797401
20-11-02-10:30:01,97.799500
20-11-02-10:35:01,97.796402
20-11-02-10:40:01,97.805397
20-11-02-10:45:01,97.804497
20-11-02-10:50:01,97.806702
20-11-02-10:55:01,97.815002
20-11-02-11:00:01,97.815506
20-11-02-11:05:01,97.831001
20-11-02-11:10:01,97.824898
20-11-02-11:15:01,97.830002
20-11-02-11:20:01,97.823601
20-11-02-11:25:01,97.811600
20-11-02-11:30:01,97.811600
20-11-02-11:35:01,97.814201
20-11-02-11:40:01,97.816498
20-11-02-11:45:01,97.818398
20-11-02-11:50:01,97.823997
20-11-02-11:55:01,97.828201
20-11-02-12:00:01,97.839005
20-11-02-12:05:01,97.846100
20-11-02-12:10:01,97.848404
20-11-02-12:15:01,97.848900
20-11-02-12:20:01,97.848495
20-11-02-12:25:01,97.855202
20-11-02-12:30:01,97.851501
20-11-02-12:35:01,97.856606
20-11-02-12:40:01,97.859398
20-11-02-12:45:01,97.859001
20-11-02-12:50:01,97.850800
20-11-02-12:55:01,97.853294
20-11-02-13:00:01,97.862396
20-11-02-13:05:01,97.859001
20-11-02-13:10:01,97.859207
20-11-02-13:15:01,97.866203
20-11-02-13:20:01,97.869003
20-11-02-13:25:01,97.867500
20-11-02-13:30:01,97.872101
20-11-02-13:35:01,97.875504
20-11-02-13:40:01,97.881203
20-11-02-13:45:01,97.880203
20-11-02-13:50:01,97.883797
20-11-02-13:55:01,97.892204
20-11-02-14:00:01,97.894203
20-11-02-14:05:01,97.893105
20-11-02-14:10:01,97.884995
20-11-02-14:15:01,97.894608
20-11-02-14:20:01,97.880394
20-11-02-14:25:01,97.881203
20-11-02-14:30:01,97.881393
20-11-02-14:35:01,97.883202
20-11-02-14:40:01,97.886894
20-11-02-14:45:01,97.888702
20-11-02-14:50:01,97.883797
20-11-02-14:55:01,97.882706
20-11-02-15:00:01,97.871994
20-11-02-15:05:01,97.871597
20-11-02-15:10:01,97.875000
20-11-02-15:15:01,97.863998
20-11-02-15:20:01,97.853996
20-11-02-15:25:01,97.834396
20-11-02-15:30:01,97.836502
20-11-02-15:35:01,97.833000
20-11-02-15:40:01,97.827003
20-11-02-15:45:01,97.824203
20-11-02-15:50:01,97.819000
20-11-02-15:55:01,97.814003
20-11-02-16:00:01,97.820702
20-11-02-16:05:01,97.814499
20-11-02-16:10:01,97.798996
20-11-02-16:15:01,97.811203
20-11-02-16:20:01,97.804604
20-11-02-16:25:01,97.795898
20-11-02-16:30:01,97.801003
20-11-02-16:35:01,97.796005
20-11-02-16:40:01,97.781998
20-11-02-16:45:01,97.770897
20-11-02-16:50:01,97.750000
20-11-02-16:55:01,97.756393
20-11-02-17:00:01,97.724800
20-11-02-17:05:01,97.718002
20-11-02-17:10:01,97.707001
20-11-02-17:15:01,97.710999
20-11-02-17:20:01,97.695999
20-11-02-17:25:01,97.698402
20-11-02-17:30:01,97.685295
20-11-02-17:35:01,97.682701
20-11-02-17:40:01,97.660400
20-11-02-17:45:01,97.660995
20-11-02-17:50:01,97.667999
20-11-02-17:55:01,97.643898
20-11-02-18:00:01,97.624001
20-11-02-18:05:01,97.613396
20-11-02-18:10:01,97.612503
20-11-02-18:15:01,97.595795
20-11-02-18:20:01,97.557602
20-11-02-18:25:01,97.542999
20-11-02-18:30:01,97.533600
20-11-02-18:35:01,97.531395
20-11-02-18:40:01,97.526703
20-11-02-18:45:01,97.527603
20-11-02-18:50:01,97.522400
20-11-02-18:55:01,97.517601
20-11-02-19:00:01,97.508705
20-11-02-19:05:01,97.500603
20-11-02-19:10:01,97.484497
20-11-02-19:15:01,97.478798
20-11-02-19:20:01,97.468605
20-11-02-19:25:01,97.443398
20-11-02-19:30:01,97.410500
20-11-02-19:35:01,97.392105
20-11-02-19:40:01,97.377205
20-11-02-19:45:01,97.353401
20-11-02-19:50:01,97.344894
20-11-02-19:55:01,97.333206
20-11-02-20:00:01,97.330200
20-11-02-20:05:01,97.330200
20-11-02-20:10:01,97.309601
20-11-02-20:15:01,97.294800
20-11-02-20:20:01,97.300400
20-11-02-20:25:01,97.297401
20-11-02-20:30:01,97.287003
20-11-02-20:35:01,97.293999
20-11-02-20:40:01,97.266998
20-11-02-20:45:01,97.259499
20-11-02-20:50:01,97.255600
20-11-02-20:55:01,97.246597
20-11-02-21:00:01,97.243896
20-11-02-21:05:01,97.235001
20-11-02-21:10:01,97.235703
20-11-02-21:15:01,97.231003
20-11-02-21:20:01,97.214005
20-11-02-21:25:01,97.197403
20-11-02-21:30:01,97.194504
20-11-02-21:35:01,97.184402
20-11-02-21:40:01,97.188004
20-11-02-21:45:01,97.178001
20-11-02-21:50:01,97.184601
20-11-02-21:55:01,97.165604
20-11-02-22:00:01,97.166397
20-11-02-22:05:01,97.144897
20-11-02-22:10:01,97.125504
20-11-02-22:20:01,97.107796
20-11-02-22:25:01,97.094002
20-11-02-22:30:01,97.096703
20-11-02-22:35:01,97.091995
20-11-02-22:40:01,97.091400
20-11-02-22:45:01,97.094002
20-11-02-22:50:01,97.080605
20-11-02-22:55:01,97.076897
20-11-02-23:00:01,97.064201
20-11-02-23:05:01,97.045502
20-11-02-23:10:01,97.026703
20-11-02-23:15:01,97.026001
20-11-02-23:20:01,97.011604
20-11-02-23:25:01,97.011208
20-11-02-23:30:02,97.010498
20-11-02-23:35:01,96.990707
20-11-02-23:40:01,96.984207
20-11-02-23:45:01,96.977005
20-11-02-23:50:02,96.988205
20-11-02-23:55:01,96.981606
20-11-03-00:00:01,96.996704
20-11-03-00:05:01,96.987000
20-11-03-00:10:01,96.971100
20-11-03-00:15:01,96.974899
20-11-03-00:20:01,96.955704
20-11-03-00:25:01,96.958000
20-11-03-00:30:01,96.960403
20-11-03-00:35:01,96.965996
20-11-03-00:40:01,96.958504
20-11-03-00:45:01,96.957001
20-11-03-00:50:01,96.961899
20-11-03-00:55:01,96.969398
20-11-03-01:00:01,96.974503
20-11-03-01:05:01,96.969704
20-11-03-01:10:01,96.972397
20-11-03-01:15:01,96.963394
20-11-03-01:20:01,96.953705
20-11-03-01:25:01,96.939400
20-11-03-01:30:01,96.938599
20-11-03-01:35:01,96.925102
20-11-03-01:40:01,96.938797
20-11-03-01:45:01,96.940796
20-11-03-01:50:01,96.936600
20-11-03-01:55:01,96.948601
20-11-03-02:00:01,96.956802
20-11-03-02:05:01,96.957397
20-11-03-02:10:01,96.974998
20-11-03-02:15:01,96.987000
20-11-03-02:20:01,97.020004
20-11-03-02:25:01,97.036400
20-11-03-02:30:01,97.041206
20-11-03-02:35:01,97.054604
20-11-03-02:40:01,97.084206
20-11-03-02:45:01,97.092796
20-11-03-02:50:01,97.089401
20-11-03-02:55:01,97.094398
20-11-03-03:00:01,97.091904
20-11-03-03:05:01,97.085403
20-11-03-03:10:01,97.088394
20-11-03-03:15:01,97.109207
20-11-03-03:20:01,97.112000
20-11-03-03:25:01,97.104500
20-11-03-03:30:01,97.099297
20-11-03-03:35:01,97.086502
20-11-03-03:40:01,97.091293
20-11-03-03:45:01,97.121902
20-11-03-03:50:01,97.109703
20-11-03-03:55:01,97.111404
20-11-03-04:00:01,97.107796
20-11-03-04:05:01,97.118301
20-11-03-04:10:01,97.120796
20-11-03-04:15:01,97.123795
20-11-03-04:20:01,97.125999
20-11-03-04:25:01,97.131203
20-11-03-04:30:01,97.128708
20-11-03-04:35:01,97.141708
20-11-03-04:40:01,97.145401
20-11-03-04:45:01,97.155800
20-11-03-04:50:01,97.147797
20-11-03-04:55:01,97.152206
20-11-03-05:00:01,97.152603
20-11-03-05:05:01,97.154999
20-11-03-05:10:01,97.157501
20-11-03-05:15:01,97.149895
20-11-03-05:20:01,97.146996
20-11-03-05:25:01,97.145203
20-11-03-05:30:01,97.128998
20-11-03-05:35:01,97.141403
20-11-03-05:40:01,97.134598
20-11-03-05:45:01,97.134003
20-11-03-05:50:01,97.139297
20-11-03-05:55:01,97.146004
20-11-03-06:00:01,97.146996
20-11-03-06:05:01,97.154999
20-11-03-06:10:01,97.153297
20-11-03-06:15:01,97.158401
20-11-03-06:20:01,97.152397
20-11-03-06:25:01,97.155502
20-11-03-06:30:01,97.157394
20-11-03-06:35:01,97.154404
20-11-03-06:40:01,97.149399
20-11-03-06:45:01,97.158203
20-11-03-06:50:01,97.163498
20-11-03-06:55:01,97.162399
20-11-03-07:00:01,97.165604
20-11-03-07:05:01,97.170792
20-11-03-07:10:01,97.160294
20-11-03-07:15:01,97.160294
20-11-03-07:20:01,97.160599
20-11-03-07:25:01,97.168396
20-11-03-07:30:01,97.185997
20-11-03-07:35:01,97.174202
20-11-03-07:40:01,97.182396
20-11-03-07:45:01,97.182205
20-11-03-07:50:01,97.187607
20-11-03-07:55:01,97.182297
20-11-03-08:00:01,97.192001
20-11-03-08:05:01,97.190399
20-11-03-08:10:01,97.197800
20-11-03-08:15:01,97.197403
20-11-03-08:20:01,97.190399
20-11-03-08:25:01,97.204208
20-11-03-08:30:01,97.220703
20-11-03-08:35:01,97.227005
20-11-03-08:40:01,97.239502
20-11-03-08:45:01,97.252899
20-11-03-08:50:01,97.263596
20-11-03-08:55:01,97.269501
20-11-03-09:00:01,97.268501
20-11-03-09:05:01,97.292999
20-11-03-09:10:01,97.296600
20-11-03-09:15:01,97.294395
20-11-03-09:20:01,97.303398
20-11-03-09:25:01,97.314499
20-11-03-09:30:01,97.334793
20-11-03-09:35:01,97.340004
20-11-03-09:40:01,97.341995
20-11-03-09:45:01,97.353004
20-11-03-09:50:01,97.361893
20-11-03-09:55:01,97.360397
20-11-03-10:00:01,97.358795
20-11-03-10:05:01,97.373398
20-11-03-10:10:01,97.380394
20-11-03-10:15:01,97.390701
20-11-03-10:20:01,97.400703
20-11-03-10:25:01,97.398796
20-11-03-10:30:01,97.412003
20-11-03-10:35:01,97.431801
20-11-03-10:40:01,97.441605
20-11-03-10:45:01,97.445206
20-11-03-10:50:01,97.447800
20-11-03-10:55:01,97.468605
20-11-03-11:00:01,97.491997
20-11-03-11:05:01,97.500198
20-11-03-11:10:01,97.511002
20-11-03-11:15:01,97.514000
20-11-03-11:20:01,97.505997
20-11-03-11:25:01,97.504501
20-11-03-11:30:01,97.526794
20-11-03-11:35:01,97.549606
20-11-03-11:40:01,97.557793
20-11-03-11:45:01,97.561996
20-11-03-11:50:01,97.569603
20-11-03-11:55:01,97.559799
20-11-03-12:00:01,97.560204
20-11-03-12:05:01,97.570900
20-11-03-12:10:01,97.587700
20-11-03-12:15:01,97.606400
20-11-03-12:20:01,97.607597
20-11-03-12:25:01,97.604202
20-11-03-12:30:01,97.619400
20-11-03-12:35:01,97.651794
20-11-03-12:40:01,97.669899
20-11-03-12:45:02,97.663300
20-11-03-12:50:01,97.673996
20-11-03-12:55:01,97.656204
20-11-03-13:00:01,97.653099
20-11-03-13:05:01,97.661209
20-11-03-13:10:01,97.676399
20-11-03-13:15:01,97.685898
20-11-03-13:20:01,97.680801
20-11-03-13:25:01,97.691101
20-11-03-13:30:01,97.702293
20-11-03-13:35:01,97.716995
20-11-03-13:40:01,97.726601
20-11-03-13:45:01,97.730499
20-11-03-13:50:01,97.710495
20-11-03-13:55:01,97.707199
20-11-03-14:00:01,97.723404
20-11-03-14:05:02,97.742996
20-11-03-14:10:01,97.763794
20-11-03-14:15:01,97.792297
20-11-03-14:20:01,97.810600
20-11-03-14:25:01,97.826500
20-11-03-14:30:01,97.834702
20-11-03-14:35:01,97.809204
20-11-03-14:40:02,97.828003
20-11-03-14:45:01,97.839203
20-11-03-14:50:01,97.843002
20-11-03-14:55:01,97.830399
20-11-03-15:00:01,97.847603
20-11-03-15:05:01,97.871704
20-11-03-15:10:01,97.869606
20-11-03-15:15:01,97.861702
20-11-03-15:20:01,97.869606
20-11-03-15:25:01,97.862000
20-11-03-15:30:02,97.870293
20-11-03-15:35:01,97.871902
20-11-03-15:40:01,97.887299
20-11-03-15:45:01,97.878296
20-11-03-15:50:01,97.869003
20-11-03-15:55:01,97.880798
20-11-03-16:00:01,97.895599
20-11-03-16:05:01,97.906799
20-11-03-16:10:01,97.891403
20-11-03-16:15:01,97.885605
20-11-03-16:20:01,97.902000
20-11-03-16:25:01,97.911797
20-11-03-16:30:01,97.923599
20-11-03-16:35:01,97.912399
20-11-03-16:40:01,97.906296
20-11-03-16:45:01,97.907204
20-11-03-16:50:01,97.908005
20-11-03-16:55:01,97.889206
20-11-03-17:00:01,97.886795
20-11-03-17:05:01,97.906395
20-11-03-17:10:01,97.901001
20-11-03-17:15:01,97.885796
20-11-03-17:20:01,97.909500
20-11-03-17:25:01,97.917206
20-11-03-17:30:01,97.916000
20-11-03-17:35:01,97.925003
20-11-03-17:40:01,97.906296
20-11-03-17:45:01,97.881798
20-11-03-17:50:01,97.881500
20-11-03-17:55:01,97.903000
20-11-03-18:00:01,97.919601
20-11-03-18:05:01,97.917496
20-11-03-18:10:01,97.898796
20-11-03-18:15:01,97.903603
20-11-03-18:20:01,97.888901
20-11-03-18:25:01,97.886002
20-11-03-18:30:01,97.887802
20-11-03-18:35:01,97.875397
20-11-03-18:40:01,97.877098
20-11-03-18:45:01,97.875000
20-11-03-18:50:01,97.878494
20-11-03-18:55:01,97.882202
20-11-03-19:00:01,97.881699
20-11-03-19:05:01,97.889206
20-11-03-19:10:01,97.899498
20-11-03-19:15:01,97.880501
20-11-03-19:20:01,97.867996
20-11-03-19:25:01,97.866997
20-11-03-19:30:01,97.855606
20-11-03-19:35:01,97.858398
20-11-03-19:40:01,97.858398
20-11-03-19:45:01,97.868393
20-11-03-19:50:01,97.875000
20-11-03-19:55:01,97.878006
20-11-03-20:00:01,97.880104
20-11-03-20:05:01,97.864792
20-11-03-20:10:01,97.871201
20-11-03-20:15:01,97.875999
20-11-03-20:20:01,97.879105
20-11-03-20:25:01,97.879204
20-11-03-20:30:01,97.884995
20-11-03-20:35:01,97.897995
20-11-03-20:40:01,97.901199
20-11-03-20:45:01,97.899605
20-11-03-20:50:01,97.892998
20-11-03-20:55:01,97.890396
20-11-03-21:00:01,97.883003
20-11-03-21:05:01,97.884796
20-11-03-21:10:01,97.885605
20-11-03-21:15:01,97.885399
20-11-03-21:20:01,97.889397
20-11-03-21:25:01,97.889206
20-11-03-21:30:01,97.892998
20-11-03-21:35:01,97.898209
20-11-03-21:40:01,97.895401
20-11-03-21:45:01,97.891602
20-11-03-21:50:01,97.893600
20-11-03-21:55:01,97.892296
20-11-03-22:00:01,97.891998
20-11-03-22:05:01,97.890999
20-11-03-22:10:01,97.901199
20-11-03-22:15:01,97.906998
20-11-03-22:20:01,97.907394
20-11-03-22:25:01,97.906204
20-11-03-22:30:01,97.906601
20-11-03-22:35:01,97.910599
20-11-03-22:40:01,97.919601
20-11-03-22:45:01,97.923401
20-11-03-22:50:01,97.931602
20-11-03-22:55:01,97.935997
20-11-03-23:00:01,97.945793
20-11-03-23:05:01,97.947800
20-11-03-23:10:01,97.949203
20-11-03-23:15:01,97.955399
20-11-03-23:20:01,97.961899
20-11-03-23:25:01,97.959999
20-11-03-23:30:01,97.961403
20-11-03-23:35:01,97.961800
20-11-03-23:40:01,97.970001
20-11-03-23:45:01,97.988205
20-11-03-23:50:01,97.997604
20-11-03-23:55:01,98.003204
20-11-04-00:00:01,98.004295
20-11-04-00:05:01,98.007599
20-11-04-00:10:01,98.003204
20-11-04-00:15:02,98.006798
20-11-04-00:20:01,98.003998
20-11-04-00:25:01,98.005600
20-11-04-00:30:01,98.003296
20-11-04-00:35:01,98.003998
20-11-04-00:40:01,97.996399
20-11-04-00:45:01,98.000504
20-11-04-00:50:02,98.000107
20-11-04-00:55:01,98.000000
20-11-04-01:00:01,97.994400
20-11-04-01:05:01,97.987198
20-11-04-01:10:02,97.987000
20-11-04-01:15:01,97.987198
20-11-04-01:20:01,97.982002
20-11-04-01:25:01,97.978401
20-11-04-01:30:01,97.974602
20-11-04-01:35:01,97.976395
20-11-04-01:40:01,97.970398
20-11-04-01:45:02,97.963104
20-11-04-01:50:01,97.960899
20-11-04-01:55:01,97.952003
20-11-04-02:00:01,97.947205
20-11-04-02:05:01,97.944397
20-11-04-02:10:01,97.947403
20-11-04-02:15:01,97.954399
20-11-04-02:20:01,97.959000
20-11-04-02:25:01,97.960899
20-11-04-02:30:01,97.954399
20-11-04-02:35:01,97.952003
20-11-04-02:40:01,97.950699
20-11-04-02:45:01,97.948402
20-11-04-02:50:01,97.937393
20-11-04-02:55:01,97.942795
20-11-04-03:00:01,97.946396
20-11-04-03:05:01,97.943802
20-11-04-03:10:01,97.950798
20-11-04-03:15:01,97.957901
20-11-04-03:20:01,97.957504
20-11-04-03:25:01,97.961601
20-11-04-03:30:01,97.963600
20-11-04-03:35:01,97.960999
20-11-04-03:40:01,97.959999
20-11-04-03:45:01,97.960205
20-11-04-03:50:01,97.963699
20-11-04-03:55:01,97.966995
20-11-04-04:00:01,97.961105
20-11-04-04:05:01,97.961800
20-11-04-04:10:01,97.959793
20-11-04-04:15:01,97.955498
20-11-04-04:20:01,97.955399
20-11-04-04:25:01,97.950203
20-11-04-04:30:01,97.949997
20-11-04-04:35:01,97.950203
20-11-04-04:40:01,97.948898
20-11-04-04:45:01,97.948402
20-11-04-04:50:01,97.950699
20-11-04-04:55:01,97.954208
20-11-04-05:00:01,97.955605
20-11-04-05:05:01,97.956001
20-11-04-05:10:01,97.955894
20-11-04-05:15:01,97.959999
20-11-04-05:20:01,97.963791
20-11-04-05:25:01,97.969498
20-11-04-05:30:01,97.973404
20-11-04-05:35:01,97.971397
20-11-04-05:40:01,97.967400
20-11-04-05:45:01,97.967499
20-11-04-05:50:01,97.972206
20-11-04-05:55:01,97.973495
20-11-04-06:00:01,97.981606
20-11-04-06:05:01,97.981606
20-11-04-06:10:01,97.984001
20-11-04-06:15:01,97.985207
20-11-04-06:20:01,97.990204
20-11-04-06:25:01,97.988602
20-11-04-06:30:01,97.986206
20-11-04-06:35:01,97.990005
20-11-04-06:40:01,97.996002
20-11-04-06:45:01,97.999298
20-11-04-06:50:01,98.005798
20-11-04-06:55:01,98.013397
20-11-04-07:00:01,98.013794
20-11-04-07:05:01,98.017403
20-11-04-07:10:01,98.022202
20-11-04-07:15:01,98.028397
20-11-04-07:20:01,98.031296
20-11-04-07:25:01,98.035202
20-11-04-07:30:01,98.033295
20-11-04-07:35:01,98.036606
20-11-04-07:40:01,98.038399
20-11-04-07:45:01,98.044899
20-11-04-07:50:01,98.047997
20-11-04-07:55:01,98.048401
20-11-04-08:00:01,98.048599
20-11-04-08:05:01,98.045502
20-11-04-08:10:01,98.050003
20-11-04-08:15:01,98.050896
20-11-04-08:20:01,98.045792
20-11-04-08:25:01,98.051498
20-11-04-08:30:01,98.046997
20-11-04-08:35:01,98.053604
20-11-04-08:40:01,98.056801
20-11-04-08:45:01,98.059204
20-11-04-08:50:01,98.059204
20-11-04-08:55:01,98.062500
20-11-04-09:00:01,98.061295
20-11-04-09:10:01,98.067703
20-11-04-09:15:01,98.072998
20-11-04-09:20:02,98.070999
20-11-04-09:25:01,98.071503
20-11-04-09:30:01,98.073997
20-11-04-09:35:01,98.078796
20-11-04-09:40:01,98.080704
20-11-04-09:45:01,98.074203
20-11-04-09:50:01,98.080200
20-11-04-09:55:01,98.080200
20-11-04-10:00:01,98.083702
20-11-04-10:05:01,98.089203
20-11-04-10:10:01,98.090202
20-11-04-10:15:01,98.093895
20-11-04-10:20:01,98.098000
20-11-04-10:25:01,98.099998
20-11-04-10:30:01,98.098999
20-11-04-10:35:01,98.101204
20-11-04-10:40:01,98.107796
20-11-04-10:45:01,98.112396
20-11-04-10:50:01,98.109398
20-11-04-10:55:01,98.108398
20-11-04-11:00:01,98.109001
20-11-04-11:05:01,98.104202
20-11-04-11:10:01,98.105202
20-11-04-11:15:01,98.112602
20-11-04-11:20:01,98.114899
20-11-04-11:25:01,98.113998
20-11-04-11:30:01,98.113998
20-11-04-11:35:01,98.119003
20-11-04-11:40:01,98.116898
20-11-04-11:45:01,98.113792
20-11-04-11:50:01,98.112801
20-11-04-11:55:01,98.118500
20-11-04-12:00:01,98.124603
20-11-04-12:05:01,98.128998
20-11-04-12:10:01,98.130997
20-11-04-12:15:01,98.128998
20-11-04-12:20:01,98.128204
20-11-04-12:25:01,98.131500
20-11-04-12:30:01,98.135399
20-11-04-12:35:01,98.135605
20-11-04-12:40:01,98.140999
20-11-04-12:45:01,98.145203
20-11-04-12:50:01,98.144608
20-11-04-12:55:01,98.150604
20-11-04-13:00:01,98.150101
20-11-04-13:05:01,98.154800
20-11-04-13:10:01,98.154404
20-11-04-13:15:01,98.168602
20-11-04-13:20:01,98.166397
20-11-04-13:25:01,98.169502
20-11-04-13:30:01,98.173500
20-11-04-13:35:02,98.179001
20-11-04-13:40:01,98.183792
20-11-04-13:45:01,98.187202
20-11-04-13:50:01,98.187607
20-11-04-13:55:01,98.187798
20-11-04-14:00:01,98.185997
20-11-04-14:05:01,98.182396
20-11-04-14:10:01,98.182602
20-11-04-14:15:01,98.190903
20-11-04-14:20:01,98.189400
20-11-04-14:25:01,98.193802
20-11-04-14:30:01,98.189293
20-11-04-14:35:01,98.190994
20-11-04-14:40:01,98.189400
20-11-04-14:45:01,98.198997
20-11-04-14:50:01,98.195793
20-11-04-14:55:01,98.182999
20-11-04-15:00:01,98.184998
20-11-04-15:05:01,98.184708
20-11-04-15:10:01,98.182503
20-11-04-15:15:01,98.179398
20-11-04-15:20:01,98.172401
20-11-04-15:25:01,98.173500
20-11-04-15:30:01,98.176796
20-11-04-15:35:01,98.176598
20-11-04-15:40:01,98.177200
20-11-04-15:45:01,98.174393
20-11-04-15:50:01,98.176003
20-11-04-15:55:01,98.171799
20-11-04-16:00:01,98.171799
20-11-04-16:05:01,98.172501
20-11-04-16:10:01,98.168999
20-11-04-16:15:01,98.163002
20-11-04-16:20:01,98.156296
20-11-04-16:25:01,98.151199
20-11-04-16:30:02,98.136002
20-11-04-16:35:01,98.117996
20-11-04-16:40:01,98.123398
20-11-04-16:45:01,98.124802
20-11-04-16:50:01,98.117401
20-11-04-16:55:01,98.116798
20-11-04-17:00:01,98.109001
20-11-04-17:05:01,98.112503
20-11-04-17:10:01,98.110794
20-11-04-17:15:01,98.107002
20-11-04-17:20:01,98.102600
20-11-04-17:25:01,98.100105
20-11-04-17:30:01,98.092400
20-11-04-17:35:01,98.079208
20-11-04-17:40:01,98.074501
20-11-04-17:45:01,98.069107
20-11-04-17:50:01,98.078995
20-11-04-17:55:01,98.082596
20-11-04-18:00:01,98.075394
20-11-04-18:05:01,98.074600
20-11-04-18:10:01,98.072800
20-11-04-18:15:01,98.067299
20-11-04-18:20:01,98.074799
20-11-04-18:25:01,98.079796
20-11-04-18:30:01,98.083397
20-11-04-18:35:01,98.084206
20-11-04-18:40:01,98.087997
20-11-04-18:45:01,98.084999
20-11-04-18:50:01,98.086601
20-11-04-18:55:01,98.075203
20-11-04-19:00:01,98.080200
20-11-04-19:05:01,98.078598
20-11-04-19:10:01,98.074997
20-11-04-19:15:01,98.074295
20-11-04-19:20:01,98.078400
20-11-04-19:25:01,98.065598
20-11-04-19:30:01,98.068703
20-11-04-19:35:01,98.070793
20-11-04-19:40:01,98.072998
20-11-04-19:45:01,98.074600
20-11-04-19:50:01,98.068497
20-11-04-19:55:01,98.083794
20-11-04-20:00:01,98.070000
20-11-04-20:05:01,98.086205
20-11-04-20:10:01,98.086601
20-11-04-20:15:01,98.094200
20-11-04-20:20:01,98.097000
20-11-04-20:25:01,98.098900
20-11-04-20:30:01,98.100204
20-11-04-20:35:01,98.103203
20-11-04-20:40:01,98.096001
20-11-04-20:45:01,98.094498
20-11-04-20:50:01,98.105301
20-11-04-20:55:01,98.104202
20-11-04-21:00:01,98.104599
20-11-04-21:05:01,98.103600
20-11-04-21:10:01,98.100601
20-11-04-21:15:01,98.102203
20-11-04-21:20:01,98.110397
20-11-04-21:25:01,98.105606
20-11-04-21:30:01,98.107498
20-11-04-21:35:01,98.104103
20-11-04-21:40:01,98.109207
20-11-04-21:45:02,98.102097
20-11-04-21:50:01,98.102005
20-11-04-21:55:01,98.101395